This is the latest recevied weather packets stored in our database for station/object W2TAO. If no packets are shown the sender has not sent any weather packets the latest 10 day(s).
| Time | Temp. | Humidity | Pressure | Rain* | Wind** | Luminosity | Snow |
|---|---|---|---|---|---|---|---|
| 1777875834 | 0.56° C | 90% | 1013.5 hPa | 0 mm | - | 0 W/m² | - |
| 1777875530 | 0.56° C | 89% | 1013.5 hPa | 0 mm | - | 0 W/m² | - |
| 1777875227 | 0.56° C | 89% | 1013.5 hPa | 0 mm | - | 0 W/m² | - |
| 1777874924 | 0.56° C | 89% | 1013.4 hPa | 0 mm | - | 0 W/m² | - |
| 1777874619 | 0.56° C | 89% | 1013.4 hPa | 0 mm | - | 0 W/m² | - |
| 1777874317 | 0.56° C | 88% | 1013.4 hPa | 0 mm | - | 0 W/m² | - |
| 1777874015 | 0.56° C | 88% | 1013.4 hPa | 0 mm | - | 0 W/m² | - |
| 1777873712 | 1.11° C | 88% | 1013.4 hPa | 0 mm | - | 0 W/m² | - |
| 1777873410 | 0.56° C | 88% | 1013.2 hPa | 0 mm | - | 0 W/m² | - |
| 1777873106 | 1.11° C | 88% | 1013.6 hPa | 0 mm | - | 0 W/m² | - |
| 1777872802 | 1.11° C | 87% | 1013.4 hPa | 0 mm | - | 0 W/m² | - |
| 1777872500 | 1.11° C | 86% | 1013.3 hPa | 0 mm | - | 0 W/m² | - |
| 1777872198 | 1.11° C | 86% | 1013.4 hPa | 0 mm | - | 0 W/m² | - |
| 1777871895 | 1.11° C | 86% | 1013.3 hPa | 0 mm | - | 0 W/m² | - |
| 1777871591 | 1.11° C | 87% | 1013.4 hPa | 0 mm | - | 0 W/m² | - |
| 1777871288 | 1.11° C | 86% | 1013.6 hPa | 0 mm | - | 0 W/m² | - |
| 1777870985 | 1.11° C | 86% | 1013.5 hPa | 0 mm | - | 0 W/m² | - |
| 1777870683 | 1.11° C | 85% | 1013.4 hPa | 0 mm | - | 0 W/m² | - |
| 1777870383 | 1.67° C | 85% | 1013.3 hPa | 0 mm | - | 0 W/m² | - |
| 1777870080 | 1.67° C | 84% | 1013.3 hPa | 0 mm | - | 0 W/m² | - |
| 1777869777 | 1.67° C | 84% | 1013.4 hPa | 0 mm | - | 0 W/m² | - |
| 1777869474 | 1.67° C | 84% | 1013.4 hPa | 0 mm | - | 0 W/m² | - |
| 1777869171 | 1.67° C | 84% | 1013.2 hPa | 0 mm | - | 0 W/m² | - |
| 1777868869 | 2.22° C | 84% | 1013.3 hPa | 0 mm | - | 0 W/m² | - |
| 1777868565 | 1.67° C | 83% | 1013.3 hPa | 0 mm | - | 0 W/m² | - |
* Rain latest hour (hover to see other rain measurements)
** Current wind speed in m/s (hover to see current wind gust speed)